OPS 4682 DEB, 13131

Orbit data source: Space-Track

OPS 4682 DEB, 13131 is space debris in LEO originally from a launch on Sat, 03 Apr 1965 UTC launched from the Air Force Western Test Range (AFWTR). Debris objects in space refer to the collection of defunct objects orbiting the Earth. Examples of debris include non-operational satellites, rocket bodies, and fragments generated from explosions, collisions, or faulty payload assembly.

Loading next visibility...
Identifier
13131, 1965-027H
Orbit
LEO
Country
Flag of USUS
Related business
Manufacturer
Unknown
Mission
Spacecraft
Bus & Motor
Unknown
Mass
Unknown
Launch date (UTC)
1965-04-03 (61 years ago)
Launch vehicle
Unknown
Launch site
Air Force Western Test Range (AFWTR)
Object type
Payload
Rocket body
Debris
Shape & HBR
Unknown shape, 0.1 m
Radar Cross Section
Small (<0.1 m²)

Expand to show TLE details & history
Last TLE update: 21 hours ago

TLE from 21 hours ago
0 OPS 4682 DEB
1 13131U 65027H   26118.90462902 -.00000133  00000-0 -47786-3 0  9993
2 13131  90.2386 352.3654 0029300 194.8435 182.8192 12.98018362624312
Epoch: 2026-04-28T21:42Z
TLE epoch observation values (Epoch: 2026-04-28T21:42:39.947Z)
Latitude
17.63458°
Longitude
169.75024°
Altitude
1,294.561 km
Speed
7.2 km/s
True Right ascension
23h 29m 09s
True Declination
17° 32' 33"
Sunlit
Object was in daylight at epoch
Visualization orbit readout
Latitude
Unknown
Longitude
Unknown
Altitude
Unknown
Speed
Unknown
Apparent Right ascension
Unknown
Apparent Declination
Unknown
Sunlit
N/A
Visualization observer readout
Local Sidereal Time
01:45:14
Azimuth
Unknown
Elevation
Unknown
Doppler factor
Unknown
Orbital elements
Apogee altitude
1,289.391 km
Perigee altitude
1,244.59 km
Semi-major axis
7,645.128 km
Eccentricity
0.00293
Inclination
90.2386°
RAAN
352.3654°
Arg. of periapsis
194.8435°
True anomaly
182.80275°
Mean anomaly
182.8192°
Eccentric anomaly
182.81097°
Mean motion
3.24688 °/min
Orbital period
110.88 mins
BSTAR
-0.00047786
Loading maneuver chart data...
Computing Atmospheric mass density...
Loading historical data...
Loading historical data...
Loading historical data...
Loading historical data...
Loading historical data...
Loading historical data...
Loading historical data...

Documentation

Showing up to 5 results
|